EHI
8 8 9 8 8 10 11 8 6 4 5 6 6 7 7 6 4 3 3 3 2 1 2 2 3 3 3 3 1 0 0 0 0 0 0 0 0 0 0 0 0 0 0
9 10 10 8 7 9 11 10 8 6 6 6 7 6 6 4 3 3 3 3 3 2 1 1 3 3 3 3 2 1 0 0 0 0 0 0 0 0 0 0 0 0 0
11 11 11 9 6 6 10 11 10 8 7 7 6 6 4 4 3 3 3 3 3 2 1 1 2 3 3 3 2 1 0 0 0 0 0 0 0 0 0 0 0 0 0
10 9 9 8 5 5 8 10 9 8 7 7 6 5 4 4 3 3 3 3 3 1 0 0 1 2 3 2 1 0 0 0 0 0 0 0 0 0 0 0 0 0 0
7 7 6 5 5 5 7 8 8 7 7 6 6 5 4 4 3 3 3 3 2 1 0 0 1 2 2 2 1 0 0 0 0 0 0 0 0 0 0 0 0 0 0
5 5 4 3 4 6 7 8 7 6 6 5 5 5 5 4 3 3 3 2 1 0 0 0 0 1 2 1 0 0 0 0 0 0 0 0 0 0 0 0 0 0 0
2 2 3 3 5 7 8 8 7 6 5 4 4 4 4 3 2 2 2 1 0 0 0 0 0 1 2 1 0 0 0 0 0 0 0 0 0 0 0 0 0 0 0
1 2 3 4 6 7 7 7 7 6 4 3 3 3 3 2 1 1 1 0 0 0 0 0 0 0 1 1 0 0 0 0 0 0 0 0 0 0 0 0 0 0 0
2 3 4 5 6 5 4 4 5 4 3 3 3 3 3 2 1 0 0 0 0 0 0 0 0 0 0 0 0 0 0 0 0 0 0 0 0 0 0 0 0 0 0
3 3 4 4 3 2 1 2 3 3 3 3 3 3 3 3 1 0 0 0 0 0 0 0 0 0 0 0 0 0 0 0 0 0 0 0 0 0 0 0 0 0 0
3 3 2 2 1 0 1 1 3 3 3 3 3 3 3 3 2 1 0 0 0 0 0 0 0 0 0 0 0 0 0 0 0 0 0 0 0 0 0 0 0 0 0
2 2 1 0 0 0 1 2 3 3 3 3 3 3 3 3 2 1 0 0 0 0 0 0 0 0 0 0 0 0 0 0 0 0 0 0 0 0 0 0 0 0 0
1 1 0 0 0 0 1 2 2 3 3 3 3 3 3 3 3 1 0 0 0 0 0 0 0 0 0 0 0 0 0 0 0 0 0 0 0 0 0 0 0 0 0
0 0 0 0 0 0 0 1 1 1 2 3 3 3 3 3 3 2 1 0 0 0 0 0 0 0 0 0 0 0 0 0 0 0 0 0 0 0 0 0 0 0 0
0 0 0 0 0 0 0 0 0 0 1 1 2 3 3 3 3 3 2 1 0 0 0 0 0 0 0 0 0 0 0 0 0 0 0 0 0 0 0 0 0 0 0
0 0 0 0 0 0 0 0 0 0 0 0 1 1 2 2 3 3 3 1 0 0 0 0 0 0 0 0 0 0 0 0 0 0 0 0 0 0 0 0 0 0 0
0 0 0 0 0 0 0 0 0 0 0 0 0 0 1 1 1 2 3 2 1 0 0 0 0 0 0 0 0 0 0 0 0 0 0 0 0 0 0 0 0 0 0
0 0 0 0 0 0 0 0 0 0 0 0 0 0 0 0 0 1 3 2 1 0 0 0 0 0 0 0 0 0 0 0 0 0 0 0 0 0 0 0 0 0 0
0 0 0 0 0 0 0 0 0 0 0 0 0 0 0 0 0 1 2 2 1 0 0 0 0 0 0 0 0 0 0 0 0 0 0 0 0 0 0 0 0 0 0
0 0 0 0 0 0 0 0 0 0 0 0 0 0 0 0 0 0 1 1 0 0 0 0 0 0 0 0 0 0 0 0 0 0 0 0 0 0 0 0 0 0 0
0 0 0 0 0 0 0 0 0 0 0 0 0 0 0 0 0 0 0 0 0 0 0 0 0 0 0 0 0 0 0 0 0 0 0 0 0 0 0 0 0 0 0
0 0 0 0 0 0 0 0 0 0 0 0 0 0 0 0 0 0 0 0 0 0 0 0 0 0 0 0 0 0 0 0 0 0 0 0 0 0 0 0 0 0 0
0 0 0 0 0 0 0 0 0 0 0 0 0 0 0 0 0 0 0 0 0 0 0 0 0 0 0 0 0 0 0 0 0 0 0 0 0 0 0 0 0 0 0
0 0 0 0 0 0 0 0 0 0 0 0 0 0 0 0 0 0 0 0 0 0 0 0 0 0 0 0 0 0 0 0 0 0 0 0 0 0 0 0 0 0 0
0 0 0 0 0 0 0 0 0 0 0 0 0 0 0 0 0 0 0 0 0 0 0 0 0 0 0 0 0 0 0 0 0 0 0 0 0 0 0 0 0 0 0
0 0 0 0 0 0 0 0 0 0 0 0 0 0 0 0 0 0 0 0 0 0 0 0 0 0 0 0 0 0 0 0 0 0 0 0 0 0 0 0 0 0 0
Wind_Speed
2 2 2 3 4 3 3 3 3 2 3 2 2 1 0 1 1 1 1 2 2 2 1 1 1 1 2 2 2 1 2 1 0 0 1 2 2 2 2 1 1 2 2
2 3 2 3 3 3 3 3 3 3 2 2 2 1 1 0 0 1 1 2 2 2 1 1 1 1 1 2 1 1 1 1 1 1 0 2 2 1 1 1 1 2 1
4 3 4 3 2 2 3 3 3 3 3 3 3 2 2 1 1 1 2 2 3 3 2 2 1 1 1 2 2 1 1 1 1 1 1 1 2 2 2 1 1 1 1
3 3 3 3 2 2 2 3 3 3 2 2 3 3 2 1 1 1 1 3 3 3 3 3 2 2 1 1 2 1 1 1 1 1 1 2 2 1 2 2 1 2 2
3 3 3 3 3 2 2 3 3 3 3 2 3 3 2 1 0 1 1 2 3 3 3 3 3 3 2 2 1 1 1 1 1 1 1 1 1 2 2 3 3 2 2
3 3 2 3 3 3 3 3 3 3 2 2 2 3 2 1 1 1 1 2 2 2 3 3 2 2 2 2 1 1 1 1 1 1 1 1 2 2 2 3 3 3 2
3 3 3 3 2 3 3 3 3 3 2 2 2 2 2 2 1 0 1 1 2 2 3 3 2 2 2 2 1 0 1 1 1 1 1 2 2 2 2 2 2 2 2
3 3 4 3 3 3 3 4 4 3 2 2 2 2 2 1 0 1 1 1 1 2 3 3 3 3 2 2 1 1 1 1 1 2 2 2 2 2 2 2 1 2 2
3 3 3 3 3 3 3 4 4 3 2 2 1 1 1 1 0 1 1 1 2 2 3 3 3 3 3 3 2 1 2 2 2 2 2 2 2 2 2 2 2 2 2
3 3 3 3 3 3 3 3 3 3 2 1 1 1 0 0 0 0 2 2 2 2 3 3 3 3 3 3 2 2 2 2 2 1 2 2 2 1 1 2 2 2 3
4 4 4 3 3 3 3 3 2 2 1 1 1 1 0 1 1 1 1 2 2 3 3 3 3 3 3 3 2 2 3 2 3 2 2 3 2 1 1 1 2 2 2
4 4 4 4 4 3 3 3 2 2 1 1 1 0 0 1 1 1 2 2 2 3 3 3 3 3 3 3 2 3 3 3 3 3 3 3 2 2 2 1 2 2 2
5 4 4 4 4 3 3 2 2 1 1 1 1 0 0 0 1 2 2 2 2 2 2 2 2 3 3 3 3 2 3 3 3 3 3 3 3 3 2 2 2 2 2
5 5 4 4 3 3 3 2 2 1 1 1 1 1 2 2 2 2 2 2 2 2 2 2 2 2 3 3 3 3 3 3 3 3 3 3 3 3 3 2 3 2 2
5 6 5 4 3 2 2 1 2 2 2 1 1 2 2 2 2 2 2 2 1 2 2 2 3 3 2 2 3 3 3 3 4 4 4 4 5 4 3 2 2 2 2
6 6 6 5 4 3 3 2 2 2 2 2 2 2 1 2 2 2 2 1 1 2 2 2 2 3 2 4 4 3 3 3 3 5 5 5 5 5 5 4 4 4 4
6 7 6 6 5 4 4 3 3 2 2 2 2 2 2 2 2 2 1 1 1 1 2 2 2 3 4 5 5 4 2 3 3 4 4 4 5 5 4 5 5 3 4
6 6 5 4 3 3 3 2 2 2 2 1 2 2 2 2 1 1 1 1 1 1 2 2 3 3 4 5 5 5 2 3 3 3 3 4 5 5 4 3 4 4 4
4 5 5 4 4 3 3 3 2 2 2 2 2 2 2 1 1 2 2 1 1 1 2 2 2 3 5 5 5 4 2 3 4 4 4 4 4 5 4 3 4 5 5
2 3 4 3 4 3 3 3 2 2 3 3 3 3 2 2 2 2 2 1 1 2 2 3 3 3 4 6 6 4 1 3 4 4 4 4 5 5 4 3 3 5 6
3 4 4 4 4 4 4 3 2 4 4 2 2 2 2 2 2 1 1 1 1 1 2 3 4 3 4 5 6 4 2 3 4 4 4 4 6 6 6 4 4 6 6
3 4 4 4 3 3 4 3 4 4 2 1 1 1 1 1 1 0 1 0 0 1 2 3 4 3 4 4 5 5 4 4 3 5 5 5 8 8 8 6 6 8 6
4 4 4 3 2 3 4 4 4 2 2 1 1 1 0 0 1 1 1 1 0 1 2 2 3 4 4 4 6 6 6 5 3 4 7 9 10 9 6 7 7 5 3
4 4 4 4 3 3 3 4 3 3 3 2 1 0 0 0 1 0 1 1 2 2 2 3 4 4 4 4 4 3 4 4 3 4 6 7 7 6 6 6 4 3 3
3 4 4 5 4 3 3 3 3 3 3 2 1 1 1 1 1 1 2 3 4 4 4 4 4 4 5 6 5 4 4 4 4 5 4 3 4 4 4 4 4 3 2
4 4 4 4 4 3 2 2 3 4 4 2 2 1 1 1 1 1 3 4 4 5 6 8 7 5 8 9 9 8 7 6 5 2 3 4 4 5 5 5 5 4 3
Wind_Direction
173 130 137 131 129 126 126 135 131 130 134 130 136 131 107 26 25 8 358 344 336 325 290 281 281 265 251 257 254 243 249 241 195 68 320 306 271 271 271 271 272 271 265
168 152 143 129 142 148 142 136 141 147 150 146 133 119 120 83 351 330 350 346 335 319 298 288 289 283 273 281 262 218 241 244 161 153 293 312 318 314 302 280 260 278 279
181 172 158 152 152 153 147 137 127 124 120 119 108 95 78 53 11 346 346 343 339 330 321 310 293 292 256 259 254 229 213 252 244 187 184 207 256 309 311 291 296 300 292
161 162 152 153 167 171 119 117 118 111 109 116 128 136 150 182 245 295 317 334 352 350 343 335 333 327 307 294 281 244 220 221 246 244 224 224 208 232 295 302 302 303 290
164 155 159 161 153 138 131 131 125 116 121 134 144 137 124 124 29 359 357 346 344 349 355 347 338 333 317 303 309 306 250 220 220 226 223 235 247 226 246 285 305 313 292
166 155 142 135 135 130 125 119 120 114 109 110 119 126 132 124 81 9 355 345 337 344 353 345 334 319 312 296 289 288 281 258 225 227 225 216 226 222 221 249 278 297 298
167 163 153 145 147 139 130 112 114 103 99 108 110 117 134 137 142 275 309 330 333 332 333 337 326 318 314 316 316 331 288 267 246 240 240 237 241 227 217 233 262 284 294
172 178 174 155 156 149 138 117 115 115 111 112 109 104 108 123 148 292 289 291 292 297 312 320 323 324 326 327 327 316 293 293 278 270 256 251 256 236 220 215 227 276 287
164 167 158 145 144 142 139 134 127 118 113 112 115 106 107 115 75 329 317 314 313 312 327 330 332 335 339 337 339 332 315 313 303 297 292 278 268 250 231 221 216 228 265
146 142 143 137 133 135 130 119 122 133 130 111 100 90 80 63 62 9 332 334 331 333 335 338 337 337 343 352 359 346 338 349 333 322 326 315 293 276 253 239 239 226 235
159 149 139 133 127 121 122 123 119 116 114 109 100 81 33 40 47 27 333 331 330 331 331 332 336 339 344 350 359 351 353 354 339 339 337 325 319 297 286 261 241 234 233
147 138 134 130 127 130 137 142 142 143 159 154 140 174 121 59 33 346 325 332 328 326 327 335 346 347 349 347 352 348 353 346 335 331 330 325 331 323 307 281 265 254 241
142 136 137 147 150 149 150 164 158 175 172 148 146 207 306 312 311 304 312 324 322 325 336 348 350 347 342 342 345 344 340 333 323 320 313 312 323 315 303 289 276 267 261
159 157 159 166 165 162 159 167 180 184 173 158 168 232 250 256 266 279 299 310 312 323 334 339 340 337 335 341 341 340 334 330 326 320 311 307 299 287 284 283 278 273 276
175 173 174 177 173 172 178 184 192 181 166 166 213 245 251 255 265 277 290 302 312 318 328 348 351 348 343 340 333 327 326 323 325 326 322 313 306 295 287 280 275 265 265
190 187 182 180 183 188 193 199 209 197 179 207 242 254 252 256 262 271 275 294 319 329 346 350 344 340 333 329 330 328 319 317 319 321 323 320 318 319 317 308 284 249 242
193 192 191 191 191 193 191 198 211 197 193 231 256 269 255 254 259 265 289 296 314 333 330 324 331 325 316 322 327 329 320 311 310 310 318 328 333 333 328 329 332 312 267
194 191 187 187 189 186 184 190 192 185 199 231 261 275 266 261 281 288 280 290 298 316 308 308 314 315 313 320 322 331 331 315 307 303 303 310 318 329 328 328 335 325 310
199 188 183 180 177 180 176 166 186 194 207 230 246 256 250 248 290 294 273 268 289 306 298 294 303 307 307 314 317 328 321 314 311 311 311 304 303 316 328 332 324 322 315
188 175 163 156 168 182 161 161 190 206 227 234 243 249 239 223 237 264 258 253 246 269 292 303 298 289 293 304 312 315 296 304 307 312 310 300 298 305 318 310 303 303 303
181 166 161 170 183 174 155 170 200 227 236 238 247 247 234 222 223 250 247 253 279 300 307 307 306 299 292 298 302 306 271 276 294 302 307 308 311 306 301 287 270 268 282
171 164 165 174 176 163 158 180 223 234 227 210 241 254 241 228 199 166 288 275 279 311 314 316 315 310 302 294 298 303 288 267 272 286 295 298 305 303 298 289 276 275 281
183 167 162 166 177 175 174 193 229 216 185 175 220 238 287 113 121 150 238 300 289 286 301 304 303 307 308 301 295 296 299 294 270 278 287 296 302 302 297 289 289 284 264
182 162 155 168 194 204 200 209 210 180 172 181 200 164 147 314 332 252 218 242 264 272 280 285 291 298 302 305 312 315 315 313 298 295 300 300 296 291 283 292 296 277 256
178 163 170 184 200 205 220 218 185 166 170 185 198 198 212 231 293 302 264 249 251 235 241 264 265 276 290 290 297 302 303 305 309 318 316 326 328 329 326 321 312 301 281
170 170 185 191 194 195 220 214 182 171 173 191 207 204 209 238 268 308 320 296 264 271 257 245 248 260 260 279 293 296 294 296 303 316 310 315 316 312 314 319 319 312 303